Regional Weather Roundup
Issued by NWS

Home | Current Version | Previous Version | Graphics & Text | Print | Product List | Glossary On
Versions: 1 2 3 4 5 6 7 8 9 10 11 12 13 14 15 16 17 18 19 20 21 22 23 24 25 26 27 28 29 30 31 32 33 34 35 36 37 38 39 40 41 42 43 44 45 46 47 48 49 50
660
ASUS45 KCYS 240410
RWRWY

WYOMING REGIONAL WEATHER ROUNDUP
NATIONAL WEATHER SERVICE CHEYENNE WY
1000 PM MDT FRI JUN 23 2017

NOTE:  "FAIR" INDICATES FEW OR NO CLOUDS BELOW 12,000 FEET
WITH NO SIGNIFICANT WEATHER AND/OR OBSTRUCTIONS TO VISIBILITY.

WYZ001-240500-
YELLOWSTONE NATIONAL PARK

CITY           SKY/WX    TMP DP  RH WIND       PRES   REMARKS
LK YELLOWSTONE   N/A     49  25  39 NW3       30.40R
W YELLOWSTONE  NOT AVBL

$$
WYZ002>013-054>058-071-098>099-240500-
NORTHERN WYOMING

CITY           SKY/WX    TMP DP  RH WIND       PRES   REMARKS
JACKSON        FAIR      52  36  54 N5        30.30R
CODY           FAIR      57  32  38 NW3       30.32
GREYBULL       FAIR      65  28  24 NW10      30.23
WORLAND        FAIR      55  37  50 NE5       30.24R
SHERIDAN       FAIR      54  38  54 NW7       30.28R
BUFFALO        MOCLDY    53  36  52 W8        30.32R
GILLETTE       FAIR      46  36  68 CALM      30.28R
NEWCASTLE      FAIR      54  27  35 N10       30.29R

$$
WYZ014>020-022>026-101>103-240500-
CENTRAL WYOMING

CITY           SKY/WX    TMP DP  RH WIND       PRES   REMARKS
BIG PINEY      FAIR      53  29  39 NW10      30.31R
PINEDALE       FAIR      52  28  40 NW15      30.32R
DUBOIS         FAIR      52  27  37 SE10      30.35R
LANDER         FAIR      57  34  41 W10       30.29R
RIVERTON       FAIR      58  28  32 N10       30.29R
CASPER         FAIR      52  31  44 NE8       30.32R
DOUGLAS        FAIR      52  32  46 N6        30.31R

$$
WYZ021-027>030-104>119-240500-
SOUTHERN WYOMING

CITY           SKY/WX    TMP DP  RH WIND       PRES   REMARKS
EVANSTON       FAIR      62  29  28 NW7       30.33R
KEMMERER         N/A     55  32  41 NW10      30.34R
FORT BRIDGER   FAIR      60  27  28 W6        30.34R
ROCK SPRINGS   FAIR      60  32  34 NE14      30.30R
DIXON          FAIR      61  28  29 E8        30.25R
RAWLINS        FAIR      59  30  33 NE15      30.29R
SARATOGA       FAIR      55  30  38 NW5       30.28R
LARAMIE        FAIR      49  41  74 SE9       30.36R
CHEYENNE       FAIR      55  43  63 SW6       30.35R
TORRINGTON     FAIR      55  29  36 NE8       30.27R
PINE BLUFFS    FAIR      54  41  62 NE3       30.31R

$$




USA.gov is the U.S. government's official web portal to all federal, state and local government web resources and services.